Location: Krakow
(50.0212°N, 19.9423°E)
Time: 17:37:07
(UTC+01:00)

ARIANE 6 FM1 Upper Stage - Pass Details

Date: 18 December 2025
Orbit: 522 x 610 km, 62.0° (Epoch: 17 January)

Event Time Altitude Azimuth Distance (km) Brightness Sun altitude
Exits shadow 05:59:03 - 232° (SW) 1,977 5.1 -14.3°
Reaches altitude 10° 05:59:32 10° 233° (SW) 1,784 4.9 -14.2°
Maximum altitude 06:03:31 71° 318° (NW) 562 2.4 -13.6°
Drops below altitude 10° 06:07:28 10° 43° (NE) 1,769 5.5 -13.0°
Sets 06:09:40 0° 45° (NE) 2,659 6.5 -12.7°
